Simultaneous Nadir Overpasses (SNOs) Predictions

Prediction of SNOs between LANDSAT-8 and TERRA Satellite Orbit:

Table of predicted SNOs for the next 14.0 days since TLE Epoch: 11/1/2025
Index Date (LANDSAT-8) Time (LANDSAT-8) Lat,Lon (LANDSAT-8) SZA (LANDSAT-8 ) Date (TERRA) Time (TERRA) Lat,Lon (TERRA) SZA (TERRA ) Distance(km) Time Diff (sec)
1 11/14/2025 23:10:11 -81.83, 73.40 75.17 11/14/2025 23:11:23 -81.82, 73.45 75.13 0.84 72
2 11/14/2025 23:59:37 81.83,-118.89 104.85 11/15/2025 00:00:43 81.83,-119.07 104.87 2.93 66
3 11/15/2025 00:49:03 -81.83, 48.69 75.15 11/15/2025 00:50:00 -81.83, 48.68 75.12 0.25 57
4 11/15/2025 01:38:29 81.83,-143.60 104.87 11/15/2025 01:39:19 81.82,-143.43 104.92 2.86 50
5 11/15/2025 02:27:56 -81.83, 23.98 75.13 11/15/2025 02:28:38 -81.83, 23.91 75.12 1.24 42
6 11/15/2025 03:17:22 81.83,-168.31 104.89 11/15/2025 03:17:57 81.82,-168.19 104.92 1.84 35
7 11/15/2025 04:06:49 -81.83, -0.73 75.12 11/15/2025 04:07:16 -81.84, -0.86 75.11 2.26 27
8 11/15/2025 04:56:15 81.83, 166.98 104.91 11/15/2025 04:56:35 81.83, 167.04 104.93 0.89 20
9 11/15/2025 05:45:41 -81.83, -25.01 75.04 11/15/2025 05:45:53 -81.82, -25.21 75.06 3.14 12
10 11/15/2025 06:35:08 81.83, 142.27 104.93 11/15/2025 06:35:13 81.83, 142.27 104.93 0.58 5
11 11/15/2025 07:24:35 -81.83, -50.15 75.08 11/15/2025 07:24:31 -81.83, -49.98 75.06 2.71 4
12 11/15/2025 08:14:01 81.83, 117.56 104.94 11/15/2025 08:13:51 81.84, 117.50 104.93 1.43 10
13 11/15/2025 09:03:28 -81.83, -74.86 75.06 11/15/2025 09:03:09 -81.83, -74.75 75.05 1.88 19
14 11/15/2025 09:52:53 81.83, 93.28 105.02 11/15/2025 09:52:28 81.82, 93.14 104.98 2.18 25
15 11/15/2025 10:42:20 -81.83, -99.14 74.99 11/15/2025 10:41:46 -81.82, -99.10 75.00 0.94 34
16 11/15/2025 11:31:46 81.83, 68.57 105.03 11/15/2025 11:31:06 81.83, 68.37 104.99 3.09 40
17 11/15/2025 12:21:13 -81.83,-123.85 74.97 11/15/2025 12:20:24 -81.83,-123.87 75.00 0.41 49
18 11/15/2025 13:10:39 81.83, 43.86 105.05 11/15/2025 13:09:43 81.82, 44.02 105.04 2.81 56
19 11/15/2025 14:00:06 -81.83,-148.56 74.95 11/15/2025 13:59:02 -81.83,-148.64 74.99 1.26 64



Historial Predications of SNOs between LANDSAT-8 and TERRA
